This is the latest recevied weather packets stored in our database for station/object 4S6DRJ-13. If no packets are shown the sender has not sent any weather packets the latest 10 day(s).
| Time | Temp. | Humidity | Pressure | Rain* | Wind** | Luminosity | Snow |
|---|---|---|---|---|---|---|---|
| 1787956742 | 27.78° C | 85% | 1008.6 hPa | 0 mm | 0.89 m/s, 355° | 0 W/m² | - |
| 1787956682 | 27.78° C | 85% | 1008.7 hPa | 0 mm | 0 m/s | 0 W/m² | - |
| 1787956620 | 27.78° C | 85% | 1008.8 hPa | 0 mm | 0 m/s | 0 W/m² | - |
| 1787956560 | 27.78° C | 85% | 1008.9 hPa | 0 mm | 0 m/s | 0 W/m² | - |
| 1787956499 | 27.78° C | 85% | 1008.8 hPa | 0 mm | 1.34 m/s, 265° | 0 W/m² | - |
| 1787956438 | 27.78° C | 85% | 1008.9 hPa | 0 mm | 0.45 m/s, 259° | 0 W/m² | - |
| 1787956377 | 27.78° C | 85% | 1009 hPa | 0 mm | 0.45 m/s, 223° | 0 W/m² | - |
| 1787956316 | 27.78° C | 85% | 1008.8 hPa | 0 mm | 0.45 m/s, 271° | 0 W/m² | - |
| 1787956255 | 27.78° C | 85% | 1008.8 hPa | 0 mm | 0 m/s | 0 W/m² | - |
| 1787956194 | 27.78° C | 85% | 1008.9 hPa | 0 mm | 1.79 m/s, 285° | 0 W/m² | - |
| 1787956133 | 27.78° C | 85% | 1008.6 hPa | 0 mm | 0.89 m/s, 249° | 0 W/m² | - |
| 1787956072 | 27.78° C | 85% | 1008.8 hPa | 0 mm | 0.89 m/s, 171° | 0 W/m² | - |
| 1787956011 | 27.78° C | 85% | 1008.8 hPa | 0 mm | 1.34 m/s, 272° | 0 W/m² | - |
| 1787955950 | 27.78° C | 85% | 1009 hPa | 0 mm | 1.79 m/s, 243° | 0 W/m² | - |
| 1787955889 | 27.78° C | 85% | 1008.9 hPa | 0 mm | 0.89 m/s, 224° | 0 W/m² | - |
| 1787955829 | 27.78° C | 85% | 1009 hPa | 0 mm | 0.45 m/s, 235° | 0 W/m² | - |
| 1787955767 | 27.78° C | 85% | 1008.9 hPa | 0 mm | 0.45 m/s, 206° | 0 W/m² | - |
| 1787955706 | 27.78° C | 85% | 1009.1 hPa | 0 mm | 0.89 m/s, 252° | 0 W/m² | - |
| 1787955644 | 27.78° C | 85% | 1008.8 hPa | 0 mm | 0.45 m/s, 215° | 0 W/m² | - |
| 1787955584 | 27.78° C | 85% | 1009 hPa | 0 mm | 0 m/s | 0 W/m² | - |
| 1787955523 | 27.78° C | 85% | 1008.8 hPa | 0 mm | 0.45 m/s, 234° | 0 W/m² | - |
| 1787955462 | 27.78° C | 85% | 1009 hPa | 0 mm | 0.89 m/s, 215° | 0 W/m² | - |
| 1787955401 | 27.78° C | 85% | 1009 hPa | 0 mm | 0.89 m/s, 230° | 0 W/m² | - |
| 1787955340 | 27.78° C | 85% | 1009 hPa | 0 mm | 0.45 m/s, 217° | 0 W/m² | - |
| 1787955279 | 27.78° C | 85% | 1008.8 hPa | 0 mm | 0.89 m/s, 206° | 0 W/m² | - |
* Rain latest hour (hover to see other rain measurements)
** Current wind speed in m/s (hover to see current wind gust speed)